Simultaneous Nadir Overpasses (SNOs) Predictions

Prediction of SNOs between LANDSAT-8 and NOAA-19 Satellite Orbit:

Table of predicted SNOs for the next 14.0 days since TLE Epoch: 7/1/2023
Index Date (LANDSAT-8) Time (LANDSAT-8) Lat,Lon (LANDSAT-8) SZA (LANDSAT-8 ) Date (NOAA-19) Time (NOAA-19) Lat,Lon (NOAA-19) SZA (NOAA-19 ) Distance(km) Time Diff (sec)
1 07/01/2023 06:10:48 -80.95, -55.24 120.31 07/01/2023 06:10:39 -80.94, -55.27 120.32 0.67 9
2 07/03/2023 12:34:01 -80.93,-151.27 120.20 07/03/2023 12:34:07 -80.94,-151.21 120.18 1.77 6
3 07/05/2023 18:07:46 80.93, -54.65 60.00 07/05/2023 18:06:41 80.94, -54.58 59.99 1.54 65
4 07/05/2023 18:57:12 -80.96, 113.31 119.95 07/05/2023 18:57:34 -80.94, 113.18 119.96 2.81 22
5 07/08/2023 00:30:56 80.95,-150.17 60.27 07/08/2023 00:30:07 80.94,-150.22 60.24 1.63 49
6 07/08/2023 01:20:23 -80.95, 17.46 119.73 07/08/2023 01:21:00 -80.94, 17.52 119.72 1.53 37
7 07/10/2023 06:54:08 80.94, 113.88 60.50 07/10/2023 06:53:35 80.94, 113.70 60.47 3.19 33
8 07/10/2023 07:43:35 -80.94, -78.47 119.49 07/10/2023 07:44:28 -80.94, -78.55 119.48 1.35 53
9 07/12/2023 13:17:19 80.95, 18.19 60.81 07/12/2023 13:17:01 80.94, 18.29 60.81 1.98 18
10 07/12/2023 14:06:46 -80.95,-174.14 119.18 07/12/2023 14:07:55 -80.94,-174.29 119.18 2.86 69



Historial Predications of SNOs between LANDSAT-8 and NOAA-19
